This is the latest recevied weather packets stored in our database for station/object K9VSK-9. If no packets are shown the sender has not sent any weather packets the latest 1 day(s).
| Time | Temp. | Humidity | Pressure | Rain* | Wind** | Luminosity | Snow |
|---|---|---|---|---|---|---|---|
| 1777976025 | 10° C | 77% | 1007.7 hPa | 0 mm | 1.34 m/s, 61° | - | - |
| 1777975725 | 10° C | 76% | 1007.7 hPa | 0 mm | 1.79 m/s, 64° | - | - |
| 1777975425 | 10° C | 75% | 1007.8 hPa | 0 mm | 1.34 m/s, 180° | - | - |
| 1777975125 | 10° C | 74% | 1007.5 hPa | 0 mm | 4.02 m/s, 360° | - | - |
| 1777974824 | 10° C | 74% | 1007.6 hPa | 0 mm | 5.36 m/s, 11° | - | - |
| 1777974524 | 10° C | 74% | 1007.6 hPa | 0 mm | 3.58 m/s, 5° | - | - |
| 1777974233 | 10° C | 72% | 1007.2 hPa | 0 mm | 4.02 m/s, 15° | - | - |
| 1777973923 | 10° C | 73% | 1007.7 hPa | 0 mm | 2.68 m/s, 279° | - | - |
| 1777973623 | 10° C | 75% | 1007.7 hPa | 0 mm | 2.24 m/s, 5° | - | - |
| 1777973323 | 10.56° C | 75% | 1007.5 hPa | 0 mm | 2.68 m/s, 38° | - | - |
| 1777973023 | 10.56° C | 75% | 1007.9 hPa | 0 mm | 1.34 m/s, 99° | - | - |
| 1777972722 | 10.56° C | 75% | 1007.7 hPa | 0 mm | 3.13 m/s, 269° | - | - |
| 1777972422 | 10.56° C | 74% | 1007.6 hPa | 0 mm | 3.13 m/s, 282° | - | - |
| 1777972122 | 10.56° C | 74% | 1007.6 hPa | 0 mm | 1.34 m/s, 234° | - | - |
| 1777971821 | 10.56° C | 75% | 1007.8 hPa | 0 mm | 1.79 m/s, 259° | - | - |
| 1777971521 | 11.11° C | 73% | 1007.5 hPa | 0 mm | 0.45 m/s, 84° | - | - |
| 1777971221 | 11.11° C | 72% | 1007.4 hPa | 0 mm | 0.89 m/s, 335° | - | - |
| 1777970920 | 11.11° C | 72% | 1007.5 hPa | 0 mm | 0.89 m/s, 13° | - | - |
| 1777970620 | 11.11° C | 74% | 1007.5 hPa | 0 mm | 1.79 m/s, 355° | - | - |
| 1777970320 | 11.11° C | 72% | 1007.2 hPa | 0 mm | 0.89 m/s, 246° | - | - |
| 1777970020 | 11.11° C | 72% | 1007 hPa | 0 mm | 1.34 m/s, 62° | - | - |
| 1777969719 | 11.11° C | 72% | 1007 hPa | 0 mm | 0.89 m/s, 52° | - | - |
| 1777969419 | 11.11° C | 72% | 1007 hPa | 0 mm | 0.89 m/s, 58° | - | - |
| 1777969119 | 11.67° C | 72% | 1006.9 hPa | 0 mm | 0.89 m/s, 76° | - | - |
| 1777968819 | 11.67° C | 71% | 1006.8 hPa | 0 mm | 0.45 m/s, 99° | - | - |
* Rain latest hour (hover to see other rain measurements)
** Current wind speed in m/s (hover to see current wind gust speed)